Find Kuiper-00021

NORAD ID: 63736 Int'l Des: 2025-088 Owner: KUIP Country: US Constellation: amazon-leo operational
LEOCIRCULAR

リアルタイム位置

3D地球を読み込み中...

Kuiper-00021について

説明を読み込み中...

次回通過

Passes for default location (London). Set your location on the main map for personalized predictions.

高度履歴

Loading altitude history...

軌道要素

1 63736U 25088N 26127.63963567 -.00003281 00000-0 -40163-3 0 9994
2 63736 51.8998 202.3832 0001261 57.8689 302.2396 14.79922746 56221
Epoch: May 7, 2026 • Age: 8 hours

現在のステータス

高度 630.9 km
速度 7.54 km/s
衛星直下点 -5.69°S, 20.71°W
打ち上げ日 Apr 28, 2025
運用期間 1 years
タイプ internet

技術仕様

分類 Payload
質量 490.00 kg
乾燥質量 490.00 kg
総質量 490.00 kg
長さ 1.80 m
直径 0.70 m
スパン 5.00 m
形状 Box + 2 pan
製造者 KUIP
バスタイプ Kuiper
フェーズステータス In Orbit
所有者/国 KUIP/US

Most Searched